Wind_Speed
2 4 4 3 4 2 3 3 3 3 2 11 14 18 18 17 17 14 12 12 12 12 10 14 16 15 15 11 11 14 16 20 25 32 38 46 51 49 46 41 37 29 32 43
2 6 5 2 3 4 5 4 3 5 5 7 15 19 20 18 14 15 11 8 15 17 15 13 14 16 18 18 16 13 14 19 23 24 28 36 39 39 44 37 36 37 42 46
3 2 6 4 4 5 5 5 3 5 5 9 9 11 1 9 2 6 10 11 12 15 14 12 14 17 19 21 23 22 15 14 18 22 25 29 31 33 35 41 42 45 46 50
4 2 6 6 5 6 5 7 3 5 8 7 4 6 8 2 7 4 5 7 12 17 13 15 15 17 16 18 22 24 23 19 17 18 24 29 32 37 37 34 43 42 49 49
2 3 3 4 2 7 0 4 3 6 9 5 6 5 1 6 6 3 10 12 10 7 8 10 12 13 14 17 18 20 24 24 21 19 21 26 33 38 38 39 43 44 43 43
9 1 4 6 3 2 3 1 3 1 2 5 0 4 3 6 5 4 10 7 8 6 7 12 14 20 21 19 19 19 21 24 25 24 23 24 32 38 42 44 44 46 48 48
3 3 2 3 5 3 2 3 4 3 3 3 1 9 11 9 9 13 14 13 6 9 11 17 23 24 24 21 21 22 22 23 24 25 27 24 27 35 42 45 47 45 42 40
7 7 6 3 3 3 4 3 3 4 4 7 5 10 3 1 6 14 14 15 14 15 17 20 24 23 21 21 23 24 25 26 25 24 26 27 26 31 38 42 42 42 41 40
3 3 1 3 3 5 5 5 2 3 5 7 7 11 14 11 8 7 13 9 10 16 22 22 25 19 17 23 26 29 29 29 27 27 25 27 27 26 34 37 33 36 38 36
2 5 3 1 3 3 6 9 3 3 4 6 7 16 13 13 11 12 7 7 10 18 23 26 23 19 17 22 27 29 30 31 29 29 29 27 28 27 28 35 36 32 32 26
3 4 4 2 8 12 5 4 2 2 4 5 8 7 2 12 12 11 11 12 18 24 24 24 24 20 20 23 23 29 33 31 27 28 29 29 28 28 26 32 32 26 23 21
1 2 8 12 7 2 3 9 10 7 6 5 5 15 11 13 5 12 26 31 26 24 24 25 27 26 23 22 23 24 30 28 23 25 28 30 28 28 29 31 33 29 27 25
4 3 5 6 4 3 4 8 9 8 2 15 12 13 5 12 19 30 27 28 26 25 27 29 29 28 27 24 24 25 29 29 24 22 26 29 29 30 31 32 36 34 32 29
2 5 10 10 10 2 8 11 12 11 6 19 18 32 24 26 22 21 25 24 24 26 30 30 28 28 26 25 26 27 34 32 28 23 25 30 30 31 31 32 35 35 32 30
6 9 14 18 19 17 20 21 20 19 23 16 24 24 25 22 20 22 23 23 27 30 31 29 29 27 27 28 29 28 32 32 29 26 26 31 31 32 34 34 37 32 30 29
4 3 3 12 15 17 19 20 19 19 22 23 28 28 25 25 17 22 19 23 29 33 36 36 31 25 30 30 31 28 33 31 29 27 29 29 32 34 36 36 34 32 30 29
1 2 4 5 2 10 14 12 10 9 10 13 17 20 18 19 19 19 27 33 40 39 30 30 25 31 34 31 32 30 34 35 31 28 30 27 27 29 35 35 32 31 31 31
8 4 3 6 8 7 4 6 11 12 15 16 18 21 18 18 25 34 32 36 35 29 27 30 33 37 33 34 32 30 29 28 31 30 27 25 27 30 34 35 32 33 33 32
14 9 4 4 5 12 12 2 2 4 14 18 17 14 18 26 36 33 28 26 30 34 37 36 35 34 32 33 30 30 32 32 30 29 26 27 30 32 37 37 36 34 32 31
7 7 2 2 4 5 3 1 2 6 13 4 11 17 20 28 17 18 35 37 29 39 37 32 32 32 30 32 28 29 33 35 34 28 22 29 32 37 41 41 36 34 33 35
3 3 9 9 6 8 4 1 5 5 6 24 29 27 28 20 24 44 41 35 38 36 33 33 33 33 30 30 26 30 33 29 26 21 16 30 32 35 37 36 36 37 37 38
2 3 3 3 5 6 2 7 5 13 32 32 31 33 33 38 43 40 36 41 40 36 36 33 34 33 33 30 28 24 33 25 19 16 19 29 32 33 32 35 38 41 42 37
2 3 2 4 5 8 16 23 26 34 31 31 31 35 36 39 39 40 43 39 38 38 39 38 36 36 31 27 23 25 31 20 15 16 19 25 27 28 36 37 46 41 39 37
3 2 3 4 4 12 25 27 26 29 28 30 33 37 33 40 37 40 37 37 37 41 42 41 38 37 33 24 22 22 22 21 21 27 25 30 30 33 44 44 41 40 39 36
5 4 5 8 16 21 13 25 26 28 30 32 34 35 34 32 34 35 35 38 40 41 43 42 41 37 30 27 23 15 22 24 33 33 34 39 43 46 44 40 36 34 34 27
1 3 2 4 22 21 23 32 30 29 33 35 34 34 33 31 33 34 35 37 39 41 39 39 39 32 43 36 34 28 30 36 37 40 46 48 44 40 40 40 37 33 25 20
Wind_Direction
38 222 211 160 200 166 175 189 221 278 267 327 299 299 299 286 276 269 261 265 289 292 285 294 290 288 284 270 275 253 245 244 242 239 225 228 248 242 237 240 238 232 240 240
210 225 190 165 175 183 191 205 224 276 260 295 296 296 287 283 266 256 224 247 287 290 267 263 273 282 283 284 281 283 264 251 249 242 235 242 244 245 242 227 219 230 236 244
240 98 162 194 179 193 208 222 218 278 299 274 299 293 62 329 197 213 262 281 294 291 269 278 292 295 300 281 278 281 277 266 259 253 246 247 243 247 240 231 233 230 235 249
260 135 188 198 232 210 243 206 231 283 312 306 346 296 269 156 310 244 301 307 300 303 288 290 294 297 292 288 281 276 277 270 268 259 252 246 250 244 235 236 229 240 246 255
192 187 222 251 220 188 264 164 279 288 289 291 260 257 198 221 224 184 326 319 305 305 315 312 319 320 309 311 298 286 276 269 267 269 261 254 243 247 244 235 235 246 252 253
261 240 257 260 137 155 103 259 289 170 252 248 224 252 213 209 204 269 310 291 289 304 322 338 333 335 329 314 307 301 283 272 268 264 269 264 257 249 244 242 243 249 259 254
218 219 172 192 167 124 129 318 302 244 220 304 140 290 258 230 254 289 295 288 306 328 323 332 328 324 331 328 311 301 295 279 272 269 262 267 262 250 249 248 251 251 252 253
220 231 184 161 214 217 194 247 265 285 263 294 263 252 246 70 284 284 286 282 296 318 330 325 325 316 322 325 321 308 293 283 274 269 264 260 265 254 244 243 245 253 255 258
196 236 236 205 224 200 156 211 27 278 257 269 240 259 275 278 297 288 303 298 299 331 330 329 327 307 304 314 321 315 302 283 273 270 267 257 257 259 247 238 242 252 257 262
130 286 241 211 199 177 242 145 182 193 258 258 258 271 265 300 312 308 323 313 318 328 328 328 327 307 304 316 320 312 299 289 273 265 268 262 255 257 251 240 236 246 256 251
164 241 244 251 221 234 180 202 159 275 245 269 297 277 359 305 317 316 321 320 316 319 321 316 318 311 301 309 315 316 299 291 275 262 263 261 255 252 252 236 227 225 242 242
127 239 260 266 262 305 261 246 233 233 212 235 286 274 289 280 319 317 309 305 306 305 310 311 314 307 301 298 304 310 308 296 286 270 265 258 255 248 248 238 230 229 231 236
184 219 288 282 148 151 202 200 212 220 246 245 262 267 180 272 303 304 304 303 304 304 308 310 306 301 296 299 305 305 305 301 297 288 276 255 250 245 240 237 232 232 230 230
285 238 246 257 292 292 269 249 225 227 253 266 252 272 276 284 289 305 310 300 300 301 302 301 302 300 292 294 301 306 307 297 300 292 282 257 243 245 236 236 230 232 228 225
203 256 252 261 267 270 267 270 264 250 246 252 269 269 281 286 292 298 307 301 302 303 301 295 300 294 292 298 297 298 306 295 297 288 281 258 242 241 234 231 227 224 217 215
184 257 243 275 263 260 268 263 260 254 257 260 265 274 279 284 284 297 297 305 304 296 298 291 289 285 292 295 296 292 304 301 301 287 278 263 249 238 230 225 221 212 208 204
284 249 282 272 295 296 275 267 241 230 245 256 273 289 305 296 304 311 310 304 299 294 296 295 285 292 291 291 293 291 301 301 301 290 277 256 240 226 219 211 204 198 196 188
231 199 255 281 297 245 30 287 281 274 278 279 280 295 301 309 309 308 303 299 302 297 294 293 288 290 292 296 292 290 302 296 298 290 269 245 222 210 203 193 187 184 180 181
222 222 249 270 264 292 287 29 347 295 292 289 294 300 311 311 307 302 302 286 296 285 292 291 288 290 292 294 294 293 293 291 293 287 261 226 203 195 184 177 175 175 179 179
168 208 226 268 281 276 352 114 51 313 289 102 322 313 304 310 303 302 307 300 294 298 291 289 291 294 290 289 293 284 264 278 288 279 245 216 194 184 176 172 174 176 175 167
147 186 229 254 262 265 281 186 308 280 342 311 299 292 296 298 295 303 299 294 302 298 294 295 292 287 285 289 282 278 270 272 277 263 236 196 178 175 175 170 170 168 165 157
241 200 223 240 245 268 94 320 319 296 292 293 302 307 301 299 300 305 298 302 302 300 299 295 287 282 285 284 280 272 264 271 265 231 187 184 181 181 173 171 166 162 155 155
294 232 275 242 267 312 306 292 294 294 298 309 307 308 304 302 298 305 303 301 302 301 300 300 294 290 286 281 269 258 260 259 233 197 182 183 179 178 171 165 152 154 157 161
281 222 240 302 256 282 300 304 306 312 309 309 307 307 305 301 298 299 300 302 302 303 303 302 295 290 287 276 262 254 247 223 192 183 174 172 169 166 152 151 154 158 162 161
269 294 265 254 278 308 305 308 312 317 311 313 313 309 307 304 301 301 304 304 304 303 304 303 297 286 277 265 260 223 207 205 173 168 166 153 147 146 148 151 159 161 161 164
294 262 281 302 297 295 300 315 320 315 313 317 311 312 312 310 304 307 305 307 308 312 316 311 300 266 239 238 236 243 177 160 159 147 150 148 151 150 153 154 155 157 158 159
Height
1481 1478 1478 1476 1477 1478 1479 1481 1480 1478 1476 1477 1471 1466 1462 1466 1466 1464 1461 1460 1460 1460 1459 1458 1456 1456 1455 1456 1457 1459 1462 1466 1469 1468 1467 1466 1469 1476 1478 1482 1488 1490 1498 1496
1480 1477 1476 1478 1478 1478 1479 1479 1479 1478 1478 1480 1470 1465 1460 1455 1456 1457 1457 1458 1458 1457 1457 1457 1455 1452 1451 1449 1452 1453 1453 1455 1457 1459 1462 1463 1465 1465 1469 1475 1479 1482 1485 1486
1479 1475 1476 1477 1477 1477 1477 1477 1479 1480 1478 1474 1471 1454 1454 1450 1453 1455 1456 1455 1455 1454 1453 1453 1452 1451 1447 1445 1446 1447 1448 1449 1451 1450 1452 1456 1456 1458 1461 1466 1470 1474 1476 1478
1477 1476 1475 1476 1476 1475 1477 1475 1478 1479 1477 1473 1472 1462 1455 1452 1449 1450 1450 1450 1449 1448 1449 1449 1448 1446 1444 1443 1441 1441 1441 1443 1444 1445 1446 1445 1448 1451 1456 1458 1462 1467 1470 1473
1473 1473 1474 1474 1472 1474 1474 1476 1477 1477 1476 1477 1465 1469 1451 1453 1448 1448 1448 1447 1446 1445 1446 1446 1447 1446 1444 1442 1440 1438 1436 1437 1440 1439 1440 1439 1441 1444 1449 1452 1456 1459 1463 1465
1470 1472 1471 1470 1472 1473 1476 1475 1476 1479 1477 1470 1466 1466 1445 1443 1443 1445 1445 1446 1447 1445 1444 1444 1443 1442 1440 1438 1436 1434 1430 1430 1432 1431 1432 1432 1433 1436 1439 1443 1446 1451 1454 1456
1469 1469 1470 1470 1470 1474 1474 1475 1473 1470 1467 1461 1467 1464 1442 1440 1442 1441 1441 1442 1445 1445 1443 1441 1439 1437 1435 1432 1431 1429 1426 1425 1425 1424 1425 1424 1426 1429 1431 1434 1438 1442 1444 1446
1469 1472 1469 1469 1467 1468 1473 1474 1477 1483 1471 1462 1464 1454 1433 1437 1440 1440 1440 1439 1440 1441 1441 1440 1436 1432 1430 1427 1425 1424 1422 1421 1421 1419 1418 1417 1419 1418 1421 1426 1430 1433 1436 1438
1470 1471 1468 1468 1468 1469 1475 1475 1477 1480 1478 1476 1451 1438 1436 1433 1434 1435 1435 1437 1438 1437 1436 1434 1431 1427 1424 1421 1419 1416 1414 1412 1413 1412 1412 1411 1411 1411 1412 1417 1421 1425 1428 1431
1470 1476 1468 1467 1469 1469 1467 1471 1479 1479 1479 1467 1442 1439 1431 1429 1431 1429 1432 1432 1433 1432 1430 1426 1426 1422 1420 1417 1413 1410 1406 1403 1402 1402 1403 1402 1403 1404 1405 1408 1411 1416 1420 1422
1472 1475 1468 1470 1465 1461 1469 1469 1475 1476 1473 1463 1450 1427 1426 1428 1429 1429 1430 1431 1429 1426 1424 1422 1419 1417 1414 1411 1408 1403 1399 1395 1394 1394 1394 1394 1396 1397 1397 1399 1404 1407 1412 1414
1474 1473 1468 1464 1459 1464 1462 1462 1465 1469 1467 1466 1466 1429 1424 1425 1429 1429 1425 1424 1423 1422 1419 1416 1413 1410 1408 1405 1402 1398 1393 1388 1386 1386 1385 1385 1387 1388 1389 1391 1396 1401 1405 1407
1474 1473 1469 1458 1462 1463 1460 1461 1461 1463 1472 1460 1461 1429 1424 1423 1423 1424 1422 1419 1417 1416 1413 1409 1407 1404 1400 1397 1393 1391 1386 1382 1379 1377 1376 1376 1377 1379 1382 1385 1389 1394 1397 1401
1477 1470 1467 1463 1453 1460 1462 1457 1458 1459 1464 1442 1441 1418 1423 1420 1419 1417 1416 1415 1412 1410 1407 1403 1399 1396 1393 1389 1385 1382 1377 1374 1370 1369 1366 1366 1367 1371 1374 1378 1381 1385 1389 1393
1471 1468 1463 1459 1457 1457 1454 1451 1449 1450 1445 1446 1427 1422 1412 1412 1412 1413 1412 1410 1407 1405 1400 1396 1392 1388 1385 1380 1377 1374 1369 1364 1362 1359 1357 1356 1358 1361 1364 1368 1373 1377 1381 1387
1469 1469 1466 1462 1455 1452 1448 1440 1436 1437 1436 1432 1423 1416 1413 1410 1411 1408 1406 1405 1401 1396 1392 1389 1384 1381 1377 1372 1368 1365 1360 1356 1354 1349 1347 1347 1348 1350 1354 1359 1364 1369 1376 1381
1468 1467 1463 1454 1450 1449 1437 1421 1422 1424 1422 1420 1415 1405 1405 1403 1403 1404 1402 1400 1394 1386 1381 1379 1375 1371 1368 1363 1360 1356 1351 1347 1343 1340 1338 1337 1340 1342 1345 1350 1356 1363 1370 1377
1466 1468 1467 1453 1452 1439 1419 1423 1422 1422 1418 1414 1410 1406 1405 1404 1403 1400 1399 1393 1384 1378 1373 1371 1366 1361 1357 1354 1349 1346 1343 1339 1336 1333 1331 1331 1333 1335 1338 1344 1351 1360 1367 1374
1462 1465 1461 1453 1441 1429 1418 1423 1423 1423 1420 1414 1410 1408 1405 1403 1395 1387 1388 1383 1378 1372 1366 1360 1354 1351 1347 1343 1340 1336 1333 1331 1328 1325 1324 1325 1327 1331 1335 1340 1348 1357 1365 1372
1461 1464 1463 1451 1448 1437 1421 1426 1428 1427 1410 1411 1413 1408 1404 1396 1387 1375 1376 1372 1366 1362 1355 1349 1344 1341 1338 1333 1332 1327 1326 1323 1321 1320 1318 1320 1323 1329 1333 1336 1345 1354 1363 1371
1459 1460 1459 1453 1448 1429 1423 1427 1428 1422 1413 1414 1410 1404 1399 1389 1383 1371 1365 1358 1356 1348 1344 1338 1333 1330 1330 1325 1324 1321 1316 1316 1316 1314 1312 1316 1321 1327 1332 1335 1344 1352 1363 1373
1451 1453 1449 1447 1442 1431 1428 1427 1431 1421 1412 1406 1400 1394 1387 1380 1370 1363 1354 1347 1341 1336 1331 1328 1324 1321 1318 1316 1315 1314 1306 1311 1310 1310 1310 1315 1320 1326 1329 1337 1345 1355 1364 1373
1450 1450 1450 1448 1432 1427 1429 1427 1422 1415 1407 1400 1394 1387 1381 1371 1362 1354 1345 1338 1330 1325 1319 1315 1310 1306 1305 1305 1304 1303 1298 1304 1306 1309 1311 1315 1318 1323 1330 1337 1348 1358 1366 1375
1448 1448 1446 1445 1428 1427 1423 1419 1415 1409 1402 1395 1388 1380 1374 1363 1355 1346 1338 1330 1324 1316 1307 1302 1297 1292 1290 1291 1293 1293 1294 1297 1303 1308 1312 1314 1318 1324 1333 1344 1352 1360 1369 1377
1448 1447 1441 1437 1430 1424 1419 1415 1409 1402 1396 1389 1380 1375 1364 1356 1346 1340 1332 1324 1316 1308 1298 1288 1280 1276 1274 1277 1281 1285 1289 1292 1300 1306 1310 1315 1322 1330 1338 1347 1358 1366 1374 1379
1448 1447 1443 1433 1430 1426 1417 1409 1403 1396 1389 1383 1373 1365 1358 1351 1341 1335 1328 1317 1307 1298 1285 1268 1256 1249 1255 1262 1274 1279 1283 1290 1299 1304 1310 1318 1327 1334 1343 1351 1359 1368 1375 1381